This is the latest recevied weather packets stored in our database for station/object W5ITZ. If no packets are shown the sender has not sent any weather packets the latest 10 day(s).
| Time | Temp. | Humidity | Pressure | Rain* | Wind** | Luminosity | Snow |
|---|---|---|---|---|---|---|---|
| 1777307315 | 28.33° C | 76% | 1011.2 hPa | 0 mm | - | 213 W/m² | - |
| 1777307013 | 28.89° C | 75% | 1010.9 hPa | 0 mm | - | 473 W/m² | - |
| 1777306710 | 28.89° C | 74% | 1010.9 hPa | 0 mm | - | 390 W/m² | - |
| 1777306407 | 28.33° C | 76% | 1011.1 hPa | 0 mm | - | 896 W/m² | - |
| 1777306101 | 28.33° C | 77% | 1011 hPa | 0 mm | - | 306 W/m² | - |
| 1777305798 | 28.33° C | 76% | 1011 hPa | 0 mm | - | 322 W/m² | - |
| 1777305494 | 28.89° C | 75% | 1010.7 hPa | 0 mm | - | 284 W/m² | - |
| 1777305189 | 28.89° C | 77% | 1011 hPa | 0 mm | - | 699 W/m² | - |
| 1777304884 | 28.89° C | 77% | 1010.6 hPa | 0 mm | - | 703 W/m² | - |
| 1777304581 | 27.78° C | 78% | 1010.9 hPa | 0 mm | - | 808 W/m² | - |
| 1777304277 | 28.33° C | 77% | 1011 hPa | 0 mm | - | 301 W/m² | - |
| 1777303975 | 28.33° C | 78% | 1010.8 hPa | 0 mm | - | 817 W/m² | - |
| 1777303672 | 28.33° C | 78% | 1010.7 hPa | 0 mm | - | 368 W/m² | - |
| 1777303369 | 28.33° C | 78% | 1010.7 hPa | 0 mm | - | 671 W/m² | - |
| 1777303066 | 27.78° C | 79% | 1010.7 hPa | 0 mm | - | 313 W/m² | - |
| 1777302764 | 27.78° C | 80% | 1010.6 hPa | 0 mm | - | 325 W/m² | - |
| 1777302462 | 27.78° C | 80% | 1010.7 hPa | 0 mm | - | 341 W/m² | - |
| 1777302159 | 27.78° C | 79% | 1010.4 hPa | 0 mm | - | 331 W/m² | - |
| 1777301857 | 27.78° C | 81% | 1010.6 hPa | 0 mm | - | 573 W/m² | - |
| 1777301554 | 27.78° C | 80% | 1010.6 hPa | 0 mm | - | 376 W/m² | - |
| 1777301251 | 27.22° C | 83% | 1010.6 hPa | 0 mm | - | 362 W/m² | - |
| 1777300948 | 27.22° C | 83% | 1010.4 hPa | 0 mm | - | 260 W/m² | - |
| 1777300646 | 27.22° C | 84% | 1010.9 hPa | 0 mm | - | 331 W/m² | - |
| 1777300343 | 26.67° C | 86% | 1010.9 hPa | 0 mm | - | 219 W/m² | - |
| 1777300040 | 26.67° C | 87% | 1010.6 hPa | 0 mm | - | 195 W/m² | - |
* Rain latest hour (hover to see other rain measurements)
** Current wind speed in m/s (hover to see current wind gust speed)